FW9262 Weather Reports


time (UTC)temp
C
wind
direction
speed
KPH
gust
KPH
rain 1hr
cm
rain 24hr
cm
rain mn
cm
humidity
%
barometer
mb
20260509032951 16 232 1.6 3.2 0.00 0.00 0.00 89 1016.6
20260509032449 15 334 1.6 3.2 0.00 0.00 0.00 89 1016.6
20260509031946 16 336 0.0 4.8 0.00 0.00 0.00 88 1016.3
20260509031443 16 342 0.0 1.6 0.00 0.00 0.00 88 1016.3
20260509030941 16 160 0.0 4.8 0.00 0.00 0.00 88 1016.3
20260509030439 16 343 0.0 1.6 0.00 0.00 0.00 88 1016.0
20260509025935 16 237 1.6 3.2 0.00 0.00 0.00 88 1016.0
20260509025431 16 331 1.6 1.6 0.00 0.00 0.00 88 1016.3
20260509024926 16 250 3.2 6.4 0.00 0.00 0.00 88 1016.3
20260509024423 16 340 0.0 0.0 0.00 0.00 0.00 88 1016.3
20260509023920 16 330 3.2 6.4 0.00 0.00 0.00 87 1016.3
20260509023417 16 256 3.2 4.8 0.00 0.00 0.00 87 1016.0
20260509022914 16 250 1.6 3.2 0.00 0.00 0.00 87 1016.0
20260509022411 16 326 1.6 4.8 0.00 0.00 0.00 87 1016.0
20260509021908 16 201 3.2 4.8 0.00 0.00 0.00 87 1016.0
20260509021405 16 278 0.0 6.4 0.00 0.00 0.00 87 1016.0
20260509020902 16 293 3.2 3.2 0.00 0.00 0.00 87 1016.0
20260509020401 16 322 1.6 4.8 0.00 0.00 0.00 87 1016.0
20260509015857 16 325 0.0 1.6 0.00 0.00 0.00 87 1016.0
20260509015356 16 280 4.8 9.7 0.00 0.00 0.00 86 1016.0
20260509014852 16 323 1.6 4.8 0.00 0.00 0.00 86 1016.0
20260509014349 16 333 1.6 4.8 0.00 0.00 0.00 86 1016.0
20260509013845 16 301 1.6 6.4 0.00 0.00 0.00 86 1016.0
20260509013342 16 348 3.2 6.4 0.00 0.00 0.00 85 1016.0
20260509012838 17 228 3.2 4.8 0.00 0.00 0.00 85 1016.0
20260509012335 17 301 1.6 6.4 0.00 0.00 0.00 85 1016.0
20260509011832 17 241 3.2 6.4 0.00 0.00 0.00 85 1016.0
20260509011330 17 265 4.8 9.7 0.00 0.00 0.00 85 1016.0
20260509010827 17 270 4.8 6.4 0.00 0.00 0.00 85 1016.0
20260509010325 17 227 3.2 4.8 0.00 0.00 0.00 84 1016.3
20260509005821 17 232 4.8 9.7 0.00 0.00 0.00 83 1016.0
20260509005319 17 257 4.8 9.7 0.00 0.00 0.00 83 1016.0
20260509004814 17 310 1.6 6.4 0.00 0.00 0.00 84 1016.0
20260509004310 17 297 3.2 6.4 0.00 0.00 0.00 83 1016.0
20260509003808 17 290 3.2 9.7 0.00 0.00 0.00 83 1016.0
20260509003306 17 211 4.8 12.9 0.00 0.00 0.00 83 1016.0
20260509002803 17 299 3.2 12.9 0.00 0.00 0.00 83 1016.0
20260509002301 17 305 4.8 11.3 0.00 0.00 0.00 82 1016.0
20260509001758 17 234 4.8 11.3 0.00 0.00 0.00 82 1016.0
20260509001254 17 219 8.0 11.3 0.00 0.00 0.00 82 1016.0
20260509000751 17 242 6.4 9.7 0.00 0.00 0.00 82 1016.0
20260509000248 18 316 3.2 9.7 0.00 0.00 0.00 82 1016.0
20260508235745 18 296 3.2 9.7 0.00 0.00 0.00 81 1016.0
20260508235242 18 208 6.4 11.3 0.00 0.00 0.00 81 1016.0
20260508234739 18 253 3.2 11.3 0.00 0.00 0.00 82 1016.0
20260508234235 18 249 4.8 9.7 0.00 0.00 0.00 80 1016.0
20260508233729 18 226 6.4 9.7 0.00 0.00 0.00 79 1016.3
20260508233227 18 211 4.8 9.7 0.00 0.00 0.00 79 1015.6
20260508232724 18 240 3.2 6.4 0.00 0.00 0.00 80 1016.0
20260508232220 18 255 6.4 9.7 0.00 0.00 0.00 78 1016.0
20260508231718 19 336 1.6 3.2 0.00 0.00 0.00 77 1016.3
20260508231215 20 272 4.8 6.4 0.00 0.00 0.00 76 1016.3
20260508230712 19 340 1.6 9.7 0.00 0.00 0.00 78 1016.3
20260508230208 20 257 4.8 11.3 0.00 0.00 0.00 75 1016.3
20260508225706 19 200 3.2 11.3 0.00 0.00 0.00 77 1016.6
20260508225202 20 281 9.7 12.9 0.00 0.00 0.00 74 1016.6
20260508224700 20 338 3.2 11.3 0.00 0.00 0.00 74 1016.3
20260508224157 20 324 3.2 4.8 0.00 0.00 0.00 74 1016.6
20260508223655 20 268 4.8 6.4 0.00 0.00 0.00 73 1017.0
20260508223152 20 332 3.2 9.7 0.00 0.00 0.00 73 1016.6
20260508222649 20 326 1.6 9.7 0.00 0.00 0.00 72 1016.6
20260508222147 20 318 4.8 11.3 0.00 0.00 0.00 73 1016.6
20260508221642 21 19 6.4 6.4 0.00 0.00 0.00 70 1017.0
20260508221138 21 328 1.6 4.8 0.00 0.00 0.00 69 1016.6
20260508220635 21 329 1.6 6.4 0.00 0.00 0.00 71 1017.0
20260508220132 21 322 3.2 9.7 0.00 0.00 0.00 71 1017.0
20260508215628 20 243 3.2 9.7 0.00 0.00 0.00 73 1017.0
20260508215125 21 271 4.8 11.3 0.00 0.00 0.00 71 1017.0
20260508214622 21 276 6.4 11.3 0.00 0.00 0.00 69 1017.3
20260508214119 20 306 4.8 6.4 0.00 0.00 0.00 72 1017.3
20260508213616 21 301 1.6 9.7 0.00 0.00 0.00 72 1017.3
20260508213112 21 317 1.6 3.2 0.00 0.00 0.00 71 1017.3
20260508212609 21 247 4.8 9.7 0.00 0.00 0.00 71 1017.3
20260508212105 21 238 6.4 9.7 0.00 0.00 0.00 71 1017.3
20260508211600 22 244 4.8 4.8 0.00 0.00 0.00 68 1017.3
20260508211057 22 344 0.0 4.8 0.00 0.00 0.00 69 1017.3
20260508210554 21 313 3.2 4.8 0.00 0.00 0.00 70 1017.6
20260508210051 21 299 3.2 9.7 0.00 0.00 0.00 69 1017.6
20260508205548 21 334 1.6 6.4 0.00 0.00 0.00 72 1017.6
20260508205044 21 309 8.0 12.9 0.00 0.00 0.00 71 1017.6
20260508204541 21 298 4.8 11.3 0.00 0.00 0.00 71 1017.6
20260508204037 20 326 1.6 11.3 0.00 0.00 0.00 75 1017.6
20260508203533 20 294 3.2 6.4 0.00 0.00 0.00 74 1018.0
20260508203029 20 340 4.8 6.4 0.00 0.00 0.00 73 1017.6
20260508202526 20 270 6.4 11.3 0.00 0.00 0.00 75 1018.0
20260508202023 20 323 3.2 11.3 0.00 0.00 0.00 73 1018.0
20260508201520 20 238 3.2 6.4 0.00 0.00 0.00 74 1018.0
20260508201016 20 221 6.4 11.3 0.00 0.00 0.00 74 1018.0
20260508200514 20 215 3.2 9.7 0.00 0.00 0.00 74 1018.0
20260508200009 20 269 4.8 6.4 0.00 0.00 0.00 74 1018.0
20260508195506 21 227 6.4 12.9 0.00 0.00 0.00 72 1018.3
20260508195003 20 267 6.4 12.9 0.00 0.00 0.00 75 1018.3
20260508194500 20 284 4.8 11.3 0.00 0.00 0.00 74 1018.3
20260508193957 20 276 4.8 9.7 0.00 0.00 0.00 75 1018.0
20260508193453 20 212 3.2 9.7 0.00 0.00 0.00 74 1018.3
20260508192949 20 240 3.2 6.4 0.00 0.00 0.00 73 1018.3
20260508192446 20 358 3.2 4.8 0.00 0.00 0.00 74 1018.3
20260508191943 20 279 4.8 6.4 0.00 0.00 0.00 75 1018.3
20260508191441 20 300 1.6 4.8 0.00 0.00 0.00 77 1018.7
20260508190937 19 191 4.8 6.4 0.00 0.00 0.00 77 1018.7
20260508190435 19 307 3.2 4.8 0.00 0.00 0.00 77 1018.7
20260508185931 18 237 3.2 9.7 0.00 0.00 0.00 79 1018.7
20260508185428 18 291 3.2 4.8 0.00 0.00 0.00 79 1018.7
20260508184925 18 258 4.8 6.4 0.00 0.00 0.00 79 1018.7
20260508184423 18 227 3.2 6.4 0.00 0.00 0.00 81 1018.7
20260508183919 18 258 4.8 9.7 0.00 0.00 0.00 79 1018.7
20260508183416 18 187 1.6 4.8 0.00 0.00 0.00 81 1019.0
20260508182911 18 212 3.2 6.4 0.00 0.00 0.00 81 1019.0
20260508182409 18 273 4.8 9.7 0.00 0.00 0.00 81 1018.7
20260508181904 18 260 4.8 11.3 0.00 0.00 0.00 81 1018.7
20260508181401 18 189 3.2 9.7 0.00 0.00 0.00 81 1018.7
20260508180858 18 266 3.2 4.8 0.00 0.00 0.00 80 1018.7
20260508180355 18 308 1.6 4.8 0.00 0.00 0.00 81 1019.0
20260508175850 18 324 1.6 6.4 0.00 0.00 0.00 81 1019.0
20260508175348 18 332 1.6 4.8 0.00 0.00 0.00 81 1019.0
20260508174846 18 252 1.6 4.8 0.00 0.00 0.00 81 1018.7
20260508174343 18 325 1.6 3.2 0.00 0.00 0.00 81 1019.0
20260508173839 18 314 1.6 3.2 0.00 0.00 0.00 80 1019.0
20260508173336 18 249 1.6 3.2 0.00 0.00 0.00 81 1019.0
20260508172832 18 205 4.8 4.8 0.00 0.00 0.00 80 1019.0
20260508172330 18 101 3.2 3.2 0.00 0.00 0.00 78 1019.0
20260508171826 18 346 0.0 1.6 0.00 0.00 0.00 79 1019.3
20260508171322 18 13 0.0 1.6 0.00 0.00 0.00 79 1019.3
20260508170819 18 337 0.0 0.0 0.00 0.00 0.00 79 1019.0
20260508170318 18 322 3.2 3.2 0.00 0.00 0.00 79 1019.3
20260508165814 18 358 0.0 0.0 0.00 0.00 0.00 79 1019.3
20260508165311 18 345 0.0 0.0 0.00 0.00 0.00 79 1019.0
20260508164807 18 348 0.0 0.0 0.00 0.00 0.00 81 1019.0
20260508164304 17 339 0.0 0.0 0.00 0.00 0.00 81 1019.0
20260508163802 17 6 1.6 3.2 0.00 0.00 0.00 81 1019.0
20260508163259 17 351 0.0 3.2 0.00 0.00 0.00 81 1019.0
20260508162755 17 350 0.0 1.6 0.00 0.00 0.00 82 1018.7
20260508162252 17 17 1.6 3.2 0.00 0.00 0.00 81 1019.0
20260508161749 17 352 0.0 0.0 0.00 0.00 0.00 82 1018.7
20260508161246 17 352 0.0 0.0 0.00 0.00 0.00 82 1019.0
20260508160744 17 345 0.0 0.0 0.00 0.00 0.00 83 1018.7
20260508160242 17 26 1.6 4.8 0.00 0.00 0.00 83 1019.0
20260508155738 17 347 0.0 1.6 0.00 0.00 0.00 83 1019.0
20260508155235 17 339 0.0 0.0 0.00 0.00 0.00 83 1019.0
20260508154732 17 354 0.0 0.0 0.00 0.00 0.00 83 1019.0
20260508154230 17 352 0.0 0.0 0.00 0.00 0.00 83 1019.0
20260508153726 16 10 0.0 0.0 0.00 0.00 0.00 84 1019.0
20260508153223 16 22 0.0 1.6 0.00 0.00 0.00 84 1018.7
20260508152720 16 49 1.6 3.2 0.00 0.00 0.00 84 1019.0
20260508152215 16 354 1.6 4.8 0.00 0.00 0.00 84 1019.3
20260508151712 16 342 0.0 1.6 0.00 0.00 0.00 85 1019.0
20260508151209 16 349 0.0 1.6 0.00 0.00 0.00 85 1019.0
20260508150706 16 8 4.8 6.4 0.00 0.00 0.00 85 1019.0
20260508150202 16 352 0.0 6.4 0.00 0.00 0.00 85 1019.0
20260508145658 16 76 0.0 1.6 0.00 0.00 0.00 85 1019.0
20260508145154 16 14 0.0 3.2 0.00 0.00 0.00 85 1018.7
20260508144652 16 354 1.6 4.8 0.00 0.00 0.00 85 1019.0
20260508144149 16 61 1.6 4.8 0.00 0.00 0.00 86 1018.7
20260508143647 16 74 1.6 3.2 0.00 0.00 0.00 86 1019.3
20260508143144 16 352 1.6 4.8 0.00 0.00 0.00 86 1019.0
20260508142640 16 348 0.0 1.6 0.00 0.00 0.00 86 1019.0
20260508142137 16 1 0.0 3.2 0.00 0.00 0.00 86 1019.3
20260508141633 16 353 0.0 3.2 0.00 0.00 0.00 86 1019.0
20260508141131 16 56 0.0 1.6 0.00 0.00 0.00 86 1019.0
20260508140628 16 352 0.0 1.6 0.00 0.00 0.00 86 1019.0
20260508140125 16 350 0.0 0.0 0.00 0.00 0.00 86 1019.0
20260508135620 16 349 0.0 0.0 0.00 0.00 0.00 87 1019.0
20260508135116 16 26 0.0 1.6 0.00 0.00 0.00 86 1018.7
20260508134614 16 18 0.0 1.6 0.00 0.00 0.00 86 1019.0
20260508134111 16 340 0.0 1.6 0.00 0.00 0.00 86 1019.0
20260508133607 16 330 0.0 1.6 0.00 0.00 0.00 86 1018.7
20260508133105 16 60 1.6 3.2 0.00 0.00 0.00 86 1018.7
20260508132603 16 53 1.6 1.6 0.00 0.00 0.00 86 1018.7
20260508132059 16 24 0.0 0.0 0.00 0.00 0.00 86 1018.7
20260508131555 16 74 1.6 3.2 0.00 0.00 0.00 86 1018.7
20260508131052 16 2 0.0 4.8 0.00 0.00 0.00 86 1018.7
20260508130548 16 22 0.0 3.2 0.00 0.00 0.00 86 1018.7
20260508130045 16 351 0.0 0.0 0.00 0.00 0.00 86 1018.7
20260508125540 16 357 0.0 1.6 0.00 0.00 0.00 86 1018.7
20260508125038 16 358 0.0 1.6 0.00 0.00 0.00 86 1018.3
20260508124536 16 75 1.6 3.2 0.00 0.00 0.00 86 1018.0
20260508124033 16 359 0.0 0.0 0.00 0.00 0.00 86 1018.3
20260508123532 16 73 1.6 3.2 0.00 0.00 0.00 86 1018.3
20260508123028 16 77 0.0 1.6 0.00 0.00 0.00 86 1018.3
20260508122525 16 357 0.0 0.0 0.00 0.00 0.00 87 1018.3
20260508122022 16 358 0.0 0.0 0.00 0.00 0.00 87 1018.0
20260508121520 16 43 0.0 1.6 0.00 0.00 0.00 86 1018.3
20260508121018 16 36 3.2 4.8 0.00 0.00 0.00 86 1018.0
20260508120515 16 1 0.0 1.6 0.00 0.00 0.00 86 1018.0
20260508120013 16 4 1.6 3.2 0.00 0.00 0.00 87 1018.3
20260508115510 16 10 1.6 3.2 0.00 0.00 0.00 87 1018.3
20260508115006 16 1 0.0 3.2 0.00 0.00 0.00 87 1018.0
20260508114504 16 49 1.6 4.8 0.00 0.00 0.00 87 1018.0
20260508114000 16 27 0.0 0.0 0.00 0.00 0.00 87 1018.0
20260508113458 16 16 0.0 1.6 0.00 0.00 0.00 87 1018.3
20260508112955 16 0 0.0 3.2 0.00 0.00 0.00 87 1018.0
20260508112451 16 20 3.2 4.8 0.00 0.00 0.00 87 1018.0
20260508111948 16 0 0.0 1.6 0.00 0.00 0.00 88 1018.0
20260508111445 16 27 1.6 3.2 0.00 0.00 0.00 88 1017.6
20260508110942 16 6 0.0 1.6 0.00 0.00 0.00 88 1017.6
20260508110440 16 354 0.0 0.0 0.00 0.00 0.00 88 1018.0
20260508105939 16 348 0.0 0.0 0.00 0.00 0.00 88 1018.0
20260508105436 16 352 0.0 0.0 0.00 0.00 0.00 88 1018.0
20260508104933 16 6 0.0 0.0 0.00 0.00 0.00 88 1018.0
20260508104431 16 26 1.6 1.6 0.00 0.00 0.00 88 1018.0
20260508103927 16 1 0.0 1.6 0.00 0.00 0.00 88 1018.0
20260508103424 16 359 0.0 1.6 0.00 0.00 0.00 88 1017.6
20260508102921 16 359 0.0 3.2 0.00 0.00 0.00 88 1017.6
20260508102420 16 12 1.6 4.8 0.00 0.00 0.00 88 1018.0
20260508101917 16 356 0.0 0.0 0.00 0.00 0.00 88 1018.0
20260508101414 16 358 0.0 0.0 0.00 0.00 0.00 89 1018.0
20260508100911 16 1 0.0 1.6 0.00 0.00 0.00 89 1017.6
20260508100410 16 9 0.0 1.6 0.00 0.00 0.00 89 1017.6
20260508095905 16 1 0.0 1.6 0.00 0.00 0.00 89 1017.6
20260508095403 16 10 0.0 0.0 0.00 0.00 0.00 89 1018.0
20260508094900 16 354 0.0 0.0 0.00 0.00 0.00 90 1018.0
20260508094356 15 347 0.0 3.2 0.00 0.00 0.00 90 1018.3
20260508093853 15 28 0.0 3.2 0.00 0.00 0.00 90 1018.3
20260508093351 15 339 0.0 0.0 0.00 0.00 0.00 90 1018.3
20260508092848 15 338 0.0 0.0 0.00 0.00 0.00 90 1018.0
20260508092346 15 334 0.0 0.0 0.00 0.00 0.00 91 1018.0
20260508091844 15 338 0.0 0.0 0.00 0.00 0.00 91 1018.0
20260508091340 15 335 0.0 0.0 0.00 0.00 0.00 91 1018.0
20260508090838 15 335 0.0 0.0 0.00 0.00 0.00 91 1018.0
20260508090337 15 335 0.0 0.0 0.00 0.00 0.00 91 1018.3
20260508085832 15 336 0.0 0.0 0.00 0.00 0.00 91 1018.7
20260508085329 15 336 0.0 0.0 0.00 0.00 0.00 91 1018.3
20260508084825 15 336 0.0 0.0 0.00 0.00 0.00 91 1018.3
20260508084322 15 338 0.0 0.0 0.00 0.00 0.00 90 1018.7
20260508083820 15 338 0.0 0.0 0.00 0.00 0.00 90 1018.3
20260508083317 15 335 0.0 0.0 0.00 0.00 0.00 90 1018.3
20260508082816 15 334 0.0 0.0 0.00 0.00 0.00 90 1018.3
20260508082315 15 337 0.0 0.0 0.00 0.00 0.00 90 1018.7
20260508081812 15 338 0.0 0.0 0.00 0.00 0.00 90 1018.3
20260508081308 15 336 0.0 0.0 0.00 0.00 0.00 90 1018.7
20260508080806 15 329 0.0 0.0 0.00 0.00 0.00 90 1018.7
20260508080304 15 333 0.0 0.0 0.00 0.00 0.00 89 1018.7
20260508075800 15 326 0.0 1.6 0.00 0.00 0.00 90 1018.7
20260508075257 16 317 1.6 1.6 0.00 0.00 0.00 90 1018.7
20260508074755 16 337 0.0 0.0 0.00 0.00 0.00 90 1018.7
20260508074251 16 322 1.6 1.6 0.00 0.00 0.00 90 1018.7
20260508073749 16 339 0.0 1.6 0.00 0.00 0.00 90 1018.7
20260508073247 16 318 0.0 1.6 0.00 0.00 0.00 90 1018.7
20260508072742 16 328 1.6 1.6 0.00 0.00 0.00 90 1019.0
20260508072239 16 333 1.6 1.6 0.00 0.00 0.00 90 1018.7
20260508071737 16 352 0.0 0.0 0.00 0.00 0.00 90 1019.0
20260508071235 15 343 0.0 0.0 0.00 0.00 0.00 90 1018.7
20260508070732 16 304 0.0 1.6 0.00 0.00 0.00 90 1018.7
20260508070231 16 345 1.6 1.6 0.00 0.00 0.00 90 1018.7
20260508065727 16 327 0.0 3.2 0.00 0.00 0.00 90 1018.7
20260508065225 16 3 0.0 1.6 0.00 0.00 0.00 90 1018.7
20260508064723 16 243 3.2 3.2 0.00 0.00 0.00 89 1018.7
20260508064221 16 11 0.0 1.6 0.00 0.00 0.00 89 1018.7
20260508063718 16 339 0.0 0.0 0.00 0.00 0.00 89 1018.7
20260508063216 16 325 0.0 4.8 0.00 0.00 0.00 89 1018.7
20260508062713 16 274 0.0 1.6 0.00 0.00 0.00 89 1018.7
20260508062210 16 312 1.6 3.2 0.00 0.00 0.00 89 1018.7
20260508061707 16 329 1.6 3.2 0.00 0.00 0.00 89 1018.7
20260508061204 16 297 3.2 3.2 0.00 0.00 0.00 89 1018.7
20260508060702 16 316 0.0 0.0 0.00 0.00 0.00 90 1018.3
20260508060158 16 313 0.0 0.0 0.00 0.00 0.00 90 1018.3
20260508055654 16 338 0.0 0.0 0.00 0.00 0.00 90 1018.3
20260508055151 16 0 0.0 1.6 0.00 0.00 0.00 90 1018.3
20260508054647 16 309 0.0 0.0 0.00 0.00 0.00 90 1018.3
20260508054145 16 336 0.0 0.0 0.00 0.00 0.00 90 1018.7
20260508053642 16 329 0.0 0.0 0.00 0.00 0.00 90 1018.7
20260508053139 16 339 0.0 0.0 0.00 0.00 0.00 90 1018.7
20260508052636 16 326 0.0 1.6 0.00 0.00 0.00 90 1018.3
20260508052133 16 338 0.0 0.0 0.00 0.00 0.00 90 1018.3
20260508051629 15 343 0.0 1.6 0.00 0.00 0.00 90 1018.7
20260508051125 15 309 0.0 1.6 0.00 0.00 0.00 91 1018.7
20260508050621 15 319 0.0 1.6 0.00 0.00 0.00 90 1018.7
20260508050119 15 334 0.0 3.2 0.00 0.00 0.00 90 1018.7
20260508045615 15 341 0.0 1.6 0.00 0.00 0.00 90 1018.7
20260508045113 15 342 0.0 1.6 0.00 0.00 0.00 90 1018.3
20260508044610 15 328 0.0 1.6 0.00 0.00 0.00 90 1018.3
20260508044106 15 310 0.0 1.6 0.00 0.00 0.00 90 1018.3
20260508043602 15 313 1.6 1.6 0.00 0.00 0.00 90 1018.0
20260508043100 15 320 0.0 0.0 0.00 0.00 0.00 91 1018.0
20260508042557 15 328 0.0 0.0 0.00 0.00 0.00 91 1018.0
20260508042054 15 335 0.0 3.2 0.00 0.00 0.00 91 1018.3
20260508041550 15 299 1.6 1.6 0.00 0.00 0.00 91 1017.6
20260508041047 15 276 3.2 3.2 0.00 0.00 0.00 91 1017.6
20260508040543 15 319 1.6 1.6 0.00 0.00 0.00 91 1017.6
20260508040042 15 348 0.0 3.2 0.00 0.00 0.00 91 1017.6
20260508035538 15 309 0.0 3.2 0.00 0.00 0.00 91 1017.6
20260508035035 15 339 0.0 3.2 0.00 0.00 0.00 91 1017.6
20260508034532 15 231 1.6 1.6 0.00 0.00 0.00 91 1017.6
20260508034029 15 270 3.2 3.2 0.00 0.00 0.00 91 1017.6
20260508033527 15 324 3.2 3.2 0.00 0.00 0.00 91 1017.3